1499385600.1,61759,17.19,74296.3,1.13,-27.35,-30.05,0,*77
1499385601.35,61760,17.19,74300.3,1.13,-27.35,-29.95,0,*7C
1499385602.63,61761,17.25,74306.0,1.13,-27.35,-30.05,0,*7C
1499385603.88,61762,17.19,74306.5,1.13,-27.23,-29.79,0,*7B
1499385605.16,61763,17.19,74306.8,1.13,-27.23,-29.89,0,*75
1499385606.45,61764,17.19,74304.8,1.13,-27.23,-29.89,0,*72
1499385607.66,61765,17.25,74308.0,1.15,-27.03,-29.67,0,*77
1499385608.91,61766,17.25,74308.8,1.13,-27.23,-29.79,0,*7F
1499385610.15,61767,17.25,74302.5,1.13,-27.07,-29.61,0,*71
1499385611.36,61768,17.19,74298.5,1.15,-27.29,-29.83,0,*78
1499385612.65,61769,17.19,74296.0,1.13,-27.23,-29.89,0,*7F
1499385613.86,61770,17.19,74292.0,1.15,-27.13,-29.67,0,*72
1499385615.11,61771,17.25,74294.0,1.15,-27.19,-29.73,0,*7C
1499385616.39,61772,17.25,74298.3,1.13,-27.35,-29.89,0,*72
1499385617.67,61773,17.19,74296.0,1.13,-27.39,-30.05,0,*73
1499385618.93,61774,17.19,74296.0,1.13,-27.51,-30.05,0,*7A
1499385620.13,61775,17.25,74298.5,1.11,-27.51,-30.11,0,*7C
1499385621.33,61776,17.25,74298.3,1.11,-27.51,-30.11,0,*7F
1499385622.62,61777,17.25,74300.8,1.09,-27.61,-30.17,0,*72
1499385623.88,61778,17.19,74294.5,1.09,-27.45,-30.11,0,*7D
1499385625.14,61779,17.19,74292.3,1.09,-27.29,-30.01,0,*77
1499385626.37,61780,17.19,74284.0,1.09,-27.29,-29.95,0,*74
1499385627.62,61781,17.25,74290.0,1.11,-27.35,-30.05,0,*70
1499385628.87,61782,17.19,74292.8,1.09,-27.39,-30.11,0,*73
1499385630.12,61783,17.25,74300.8,1.09,-27.45,-30.11,0,*79
1499385631.41,61784,17.25,74306.3,1.09,-27.45,-30.17,0,*78
1499385632.64,61785,17.25,74304.8,1.07,-27.51,-30.23,0,*75
1499385633.9,61786,17.19,74300.3,1.07,-27.29,-30.05,0,*7D
1499385635.16,61787,17.25,74300.0,1.05,-27.45,-30.01,0,*70
1499385636.45,61788,17.19,74302.5,1.07,-27.45,-29.89,0,*75
1499385637.73,61789,17.25,74304.8,1.07,-27.35,-30.01,0,*7B
1499385638.97,61790,17.19,74302.5,1.07,-27.29,-29.83,0,*7C
1499385640.21,61791,17.19,74304.0,1.07,-27.03,-29.57,0,*7C
1499385641.45,61792,17.19,74306.5,1.07,-27.03,-29.57,0,*7F
1499385642.7,61793,17.25,74310.0,1.05,-26.97,-29.39,0,*78
1499385643.99,61794,17.19,74306.5,1.07,-26.81,-29.39,0,*7A
1499385645.27,61795,17.19,74308.8,1.07,-26.81,-29.39,0,*7B
1499385646.5,61796,17.25,74310.3,1.11,-26.65,-29.29,0,*74
1499385647.78,61797,17.19,74308.3,1.09,-26.71,-29.35,0,*74
1499385649.07,61798,17.25,74310.3,1.09,-26.93,-29.51,0,*75
1499385650.35,61799,17.19,74308.8,1.09,-26.93,-29.51,0,*74
1499385651.57,61800,17.25,74312.5,1.09,-27.13,-29.79,0,*78
1499385652.81,61801,17.19,74308.5,1.09,-27.29,-29.83,0,*75
1499385654.09,61802,17.19,74308.0,1.07,-27.35,-29.89,0,*7F
1499385655.35,61803,17.25,74314.0,1.07,-27.45,-30.11,0,*70
1499385656.58,61804,17.19,74308.5,1.09,-27.55,-30.11,0,*78
1499385657.84,61805,17.19,74308.0,1.07,-27.61,-30.27,0,*75
1499385659.08,61806,17.19,74310.3,1.05,-27.51,-30.17,0,*74
1499385660.31,61807,17.19,74310.5,1.05,-27.51,-30.17,0,*75
1499385661.55,61808,17.19,74312.0,1.05,-27.61,-30.23,0,*7E
1499385662.76,61809,17.19,74312.5,1.05,-27.67,-30.27,0,*7D
1499385663.99,61810,17.19,74312.3,1.07,-27.67,-30.27,0,*77
1499385665.2,61811,17.19,74314.0,1.05,-27.77,-30.27,0,*75
1499385666.44,61812,17.25,74316.3,1.05,-27.61,-30.23,0,*75
1499385667.67,61813,17.25,74318.5,1.03,-27.67,-30.33,0,*75
1499385668.9,61814,17.25,74318.8,1.03,-27.71,-30.27,0,*70
1499385670.1,61815,17.25,74320.5,1.01,-27.55,-30.27,0,*75
1499385671.33,61816,17.25,74318.3,1.03,-27.51,-29.95,0,*71
1499385672.61,61817,17.19,74322.3,1.03,-27.35,-29.89,0,*7F
1499385673.84,61818,17.19,74318.5,1.03,-27.07,-29.61,0,*77
1499385675.06,61819,17.19,74322.5,1.03,-27.03,-29.61,0,*72
1499385676.32,61820,17.19,74316.0,1.01,-26.81,-29.39,0,*7C
1499385677.58,61821,17.19,74318.8,1.03,-26.97,-29.57,0,*70
1499385678.83,61822,17.19,74316.3,1.03,-27.07,-29.73,0,*7D
1499385680.06,61823,17.19,74322.0,1.05,-27.03,-29.51,0,*7E
1499385681.27,61824,17.25,74322.0,1.05,-27.03,-29.57,0,*7F
1499385682.48,61825,17.25,74324.3,1.05,-27.03,-29.67,0,*7D
1499385683.71,61826,17.25,74314.8,1.01,-27.07,-29.73,0,*7B
1499385684.91,61827,17.19,74306.8,1.01,-27.07,-29.79,0,*70
1499385686.15,61828,17.19,74302.8,1.05,-27.19,-29.73,0,*7E
1499385687.43,61829,17.19,74294.3,1.03,-27.19,-29.89,0,*7C
1499385688.68,61830,17.25,74300.8,1.01,-27.35,-30.05,0,*74
1499385689.93,61831,17.19,74296.5,1.03,-27.51,-30.05,0,*75
1499385691.18,61832,17.25,74302.3,1.03,-27.51,-30.05,0,*76
1499385692.38,61833,17.19,74302.0,1.01,-27.51,-30.23,0,*71
1499385693.61,61834,17.19,74302.8,1.01,-27.39,-30.11,0,*79
1499385694.81,61835,17.19,74302.0,1.01,-27.51,-30.27,0,*73
1499385696.01,61836,17.19,74304.5,1.01,-27.51,-30.27,0,*70
1499385697.22,61837,17.19,74306.5,1.01,-27.51,-30.27,0,*71
1499385698.42,61838,17.19,74310.0,1.01,-27.55,-30.23,0,*7E
1499385699.68,61839,17.19,74310.3,0.99,-27.61,-30.27,0,*4C
1499385700.94,61840,17.25,74318.0,0.99,-27.61,-30.27,0,*42
1499385702.14,61841,17.25,74314.5,0.97,-27.55,-30.11,0,*4F
1499385703.37,61842,17.25,74312.3,0.97,-27.55,-30.17,0,*4A
1499385704.57,61843,17.25,74312.0,0.97,-27.55,-30.11,0,*4D
1499385705.79,61844,17.19,74308.0,0.97,-27.23,-29.79,0,*4D
1499385707.01,61845,17.25,74310.0,0.97,-27.23,-29.79,0,*4C
1499385708.27,61846,17.19,74310.8,0.99,-27.03,-29.51,0,*49
1499385709.55,61847,17.19,74304.0,0.99,-26.93,-29.51,0,*40
1499385710.75,61848,17.25,74308.0,0.97,-26.87,-29.45,0,*41
1499385711.98,61849,17.19,74302.0,0.97,-27.03,-29.51,0,*48
1499385713.21,61850,17.19,74304.8,0.97,-26.93,-29.61,0,*4B
1499385714.41,61851,17.19,74308.8,0.97,-27.07,-29.61,0,*46
1499385715.64,61852,17.25,74314.3,0.99,-27.07,-29.61,0,*4B
1499385716.88,61853,17.19,74314.8,0.97,-27.07,-29.51,0,*47
1499385718.15,61854,17.19,74316.5,0.99,-26.71,-29.29,0,*41
1499385719.43,61855,17.19,74312.3,0.99,-26.77,-29.35,0,*4B
1499385720.69,61856,17.19,74318.8,1.01,-26.81,-29.39,0,*7D
1499385721.94,61857,17.19,74316.5,0.99,-26.87,-29.35,0,*46
1499385723.22,61858,17.19,74312.8,0.99,-26.77,-29.29,0,*4B
1499385724.48,61859,17.19,74314.3,0.97,-26.77,-29.35,0,*49
1499385725.73,61860,17.25,74312.3,1.01,-26.81,-29.39,0,*78
1499385726.93,61861,17.19,74310.5,1.01,-26.65,-29.23,0,*78
1499385728.19,61862,17.25,74312.0,1.01,-26.81,-29.39,0,*7A
1499385729.39,61863,17.25,74312.5,1.01,-26.87,-29.45,0,*76
1499385730.6,61864,17.19,74314.8,1.01,-27.03,-29.57,0,*7F
1499385731.83,61865,17.19,74314.8,0.99,-27.07,-29.67,0,*49
1499385733.03,61866,17.19,74312.3,0.97,-27.13,-29.67,0,*41
1499385734.27,61867,17.19,74312.5,1.01,-26.97,-29.45,0,*73
1499385735.5,61868,17.25,74316.3,1.01,-26.97,-29.57,0,*7F
1499385736.74,61869,17.19,74314.0,1.01,-26.97,-29.57,0,*7E
1499385738.0,61870,17.25,74316.3,0.97,-26.77,-29.35,0,*42
1499385739.2,61871,17.19,74312.3,1.01,-26.87,-29.45,0,*75
1499385740.42,61872,17.19,74308.0,1.01,-26.87,-29.39,0,*7D
1499385741.64,61873,17.19,74306.0,1.01,-26.87,-29.39,0,*7C
1499385742.85,61874,17.19,74308.5,1.01,-27.03,-29.45,0,*7D
1499385744.1,61875,17.19,74312.3,0.99,-27.03,-29.51,0,*49
1499385745.36,61876,17.19,74314.5,1.03,-27.07,-29.73,0,*7C
1499385746.61,61877,17.19,74310.0,0.99,-27.23,-29.79,0,*43
1499385747.83,61878,17.25,74310.8,0.97,-27.23,-29.79,0,*42
1499385749.08,61879,17.19,74300.5,0.99,-27.23,-29.95,0,*4F
1499385750.33,61880,17.25,74306.3,0.99,-27.23,-29.83,0,*4E
1499385751.59,61881,17.19,74310.8,0.99,-26.93,-29.45,0,*4F
1499385752.82,61882,17.19,74308.3,0.97,-26.87,-29.35,0,*40
1499385754.1,61883,17.19,74304.5,0.99,-26.93,-29.51,0,*48
1499385755.32,61884,17.19,74300.8,0.99,-27.13,-29.79,0,*4C
1499385756.53,61885,17.19,74314.3,0.97,-27.13,-29.67,0,*4C
1499385757.73,61886,17.19,74306.5,0.97,-27.03,-29.67,0,*4E
1499385758.98,61887,17.19,74308.5,0.99,-27.23,-29.95,0,*4E
1499385760.21,61888,17.19,74306.0,0.99,-27.29,-29.95,0,*4B
1499385761.42,61889,17.19,74310.8,0.97,-27.29,-29.95,0,*44
1499385762.66,61890,17.19,74310.8,0.97,-27.29,-30.01,0,*49
1499385763.88,61891,17.19,74308.5,0.97,-27.23,-29.79,0,*45
1499385765.1,61892,17.19,74308.5,0.97,-27.23,-29.83,0,*43
1499385766.31,61893,17.25,74318.0,0.97,-27.29,-29.83,0,*48
1499385767.51,61894,17.25,74314.8,0.97,-27.13,-29.79,0,*43
1499385768.71,61895,17.19,74310.3,0.97,-27.13,-29.67,0,*4D
1499385769.91,61896,17.19,74308.5,0.93,-27.13,-29.67,0,*4A
1499385771.14,61897,17.19,74308.3,0.93,-27.13,-29.73,0,*4E
1499385772.39,61898,17.19,74310.3,0.93,-26.93,-29.39,0,*46
1499385773.59,61899,17.19,74306.5,0.93,-27.07,-29.67,0,*40
1499385774.85,61900,17.19,74300.5,0.93,-26.97,-29.51,0,*4C
1499385776.14,61901,17.19,74300.5,0.91,-26.77,-29.35,0,*43
1499385777.37,61902,17.19,74302.0,0.93,-26.97,-29.57,0,*48
1499385778.58,61903,17.19,74304.3,0.93,-27.29,-29.83,0,*44
1499385779.83,61904,17.19,74306.0,0.93,-27.35,-29.89,0,*44
1499385781.1,61905,17.19,74306.3,0.93,-27.61,-30.01,0,*4C
1499385782.33,61906,17.19,74310.8,0.91,-27.29,-29.83,0,*43
1499385783.54,61907,17.19,74310.5,0.93,-27.07,-29.57,0,*45
1499385784.8,61908,17.19,74310.0,0.91,-27.07,-29.51,0,*4E
1499385786.06,61909,17.19,74302.0,0.91,-26.97,-29.57,0,*41
1499385787.34,61910,17.25,74312.8,0.91,-26.81,-29.51,0,*48
1499385788.57,61911,17.25,74314.5,0.91,-27.13,-29.57,0,*45
1499385789.83,61912,17.25,74312.8,0.91,-27.07,-29.51,0,*45
1499385791.12,61913,17.19,74314.3,0.91,-26.81,-29.35,0,*49
1499385792.41,61914,17.19,74320.0,0.91,-26.97,-29.51,0,*4B
1499385793.66,61915,17.25,74314.8,0.89,-26.81,-29.35,0,*46
1499385794.95,61916,17.19,74314.3,0.91,-26.97,-29.51,0,*49
1499385796.2,61917,17.19,74318.3,0.93,-26.81,-29.39,0,*43
1499385797.49,61918,17.19,74318.3,0.91,-26.97,-29.51,0,*47
1499385798.75,61919,17.19,74306.5,0.93,-26.97,-29.51,0,*44
1499385800.04,61920,17.19,74306.5,0.91,-26.93,-29.51,0,*48
1499385801.32,61921,17.19,74308.3,0.91,-26.81,-29.35,0,*48
1499385802.6,61922,17.19,74306.8,0.91,-26.81,-29.29,0,*46
1499385803.89,61923,17.19,74310.8,0.91,-26.97,-29.51,0,*4F
1499385805.15,61924,17.19,74308.0,0.91,-26.97,-29.57,0,*4E
1499385806.43,61925,17.19,74306.8,0.91,-26.93,-29.51,0,*4D
1499385807.71,61926,17.19,74302.3,0.91,-26.93,-29.39,0,*40
1499385808.99,61927,17.19,74300.8,0.91,-26.93,-29.51,0,*4F
1499385810.27,61928,17.19,74302.0,0.91,-26.93,-29.51,0,*40
1499385811.53,61929,17.25,74304.5,0.93,-26.77,-29.35,0,*4B
1499385812.81,61930,17.25,74306.5,0.91,-26.81,-29.39,0,*44
1499385814.1,61931,17.19,74310.3,0.91,-26.81,-29.35,0,*49
1499385815.35,61932,17.19,74308.0,0.93,-26.77,-29.29,0,*4C
1499385816.62,61933,17.25,74308.8,0.91,-26.77,-29.29,0,*4F
1499385817.87,61934,17.25,74304.5,0.93,-26.77,-29.29,0,*4A
1499385819.12,61935,17.25,74308.0,0.93,-26.81,-29.29,0,*42
1499385820.38,61936,17.19,74306.0,0.93,-26.81,-29.39,0,*40
1499385821.62,61937,17.25,74306.5,0.91,-27.13,-29.73,0,*47
1499385822.9,61938,17.19,74306.0,0.91,-26.93,-29.39,0,*4F
1499385824.15,61939,17.19,74302.3,0.93,-26.93,-29.39,0,*4C
1499385825.44,61940,17.19,74302.0,0.91,-26.93,-29.51,0,*4E
1499385826.64,61941,17.19,74296.3,0.93,-27.07,-29.57,0,*47
1499385827.88,61942,17.19,74300.5,0.91,-27.07,-29.67,0,*45
1499385829.11,61943,17.19,74300.0,0.91,-27.07,-29.67,0,*44
1499385830.39,61944,17.19,74304.3,0.91,-26.93,-29.39,0,*44
1499385831.64,61945,17.19,74298.8,0.93,-26.81,-29.39,0,*44
1499385832.92,61946,17.19,74298.3,0.91,-26.77,-29.39,0,*4C
1499385834.2,61947,17.19,74302.8,0.91,-26.77,-29.29,0,*4C
1499385835.48,61948,17.19,74306.5,0.91,-26.77,-29.35,0,*4E
1499385836.77,61949,17.19,74296.8,0.91,-26.77,-29.35,0,*4F
1499385838.04,61950,17.25,74296.5,0.91,-26.77,-29.29,0,*4A
1499385839.28,61951,17.19,74296.0,0.91,-27.07,-29.67,0,*47
1499385840.53,61952,17.19,74308.3,0.91,-27.13,-29.73,0,*44
1499385841.77,61953,17.19,74318.5,0.89,-27.19,-29.89,0,*43
1499385843.0,61954,17.19,74310.3,0.89,-26.97,-29.61,0,*45
1499385844.23,61955,17.19,74310.3,0.89,-26.97,-29.57,0,*41
1499385845.51,61956,17.19,74306.5,0.91,-26.97,-29.39,0,*43
1499385846.76,61957,17.19,74310.3,0.89,-26.81,-29.39,0,*4C
1499385848.01,61958,17.19,74310.8,0.89,-26.71,-29.39,0,*4C
1499385849.25,61959,17.19,74310.0,0.89,-26.71,-29.39,0,*4D
1499385850.5,61960,17.19,74312.0,0.89,-26.81,-29.39,0,*48
1499385851.72,61961,17.19,74318.0,0.89,-26.87,-29.39,0,*4F
1499385853.0,61962,17.19,74316.0,0.91,-26.93,-29.39,0,*40
1499385854.27,61963,17.19,74314.8,0.91,-26.77,-29.29,0,*4A
1499385855.52,61964,17.25,74312.8,0.91,-26.65,-29.29,0,*4E
1499385856.8,61965,17.19,74306.0,0.91,-26.77,-29.29,0,*4C
1499385858.08,61966,17.25,74312.5,0.91,-26.81,-29.29,0,*46
1499385859.36,61967,17.19,74306.8,0.91,-26.77,-29.35,0,*43
1499385860.65,61968,17.19,74304.8,0.91,-26.81,-29.35,0,*45
1499385861.93,61969,17.19,74302.3,0.91,-26.81,-29.35,0,*44
1499385863.19,61970,17.19,74300.0,0.91,-27.07,-29.39,0,*4F
1499385864.42,61971,17.19,74298.0,0.91,-27.13,-29.67,0,*40
1499385865.69,61972,17.25,74306.3,0.91,-27.19,-29.73,0,*4C
1499385866.97,61973,17.25,74300.0,0.91,-26.93,-29.35,0,*4C
1499385868.22,61974,17.19,74292.8,0.89,-26.81,-29.39,0,*4D
1499385869.46,61975,17.19,74290.8,0.89,-26.71,-29.17,0,*4F
1499385870.72,61976,17.19,74290.8,0.91,-26.65,-29.17,0,*40
1499385871.99,61977,17.25,74298.3,0.91,-26.77,-29.29,0,*4F
1499385873.24,61978,17.25,74304.0,0.91,-26.61,-29.29,0,*47
1499385874.47,61979,17.19,74300.0,0.89,-26.39,-28.91,0,*40
1499385875.71,61980,17.19,74306.8,0.91,-26.61,-29.17,0,*4D
1499385876.97,61981,17.19,74304.8,0.91,-26.65,-29.13,0,*4C
1499385878.23,61982,17.19,74302.3,0.91,-26.65,-29.35,0,*4B
1499385879.48,61983,17.19,74298.8,0.91,-26.65,-29.29,0,*47
1499385880.73,61984,17.19,74300.5,0.91,-26.61,-29.17,0,*49
1499385881.95,61985,17.19,74298.0,0.93,-26.61,-29.13,0,*4E
1499385883.2,61986,17.19,74296.3,0.91,-26.49,-29.01,0,*46
1499385884.49,61987,17.25,74302.8,0.91,-26.33,-29.01,0,*4A
1499385885.71,61988,17.25,74304.0,0.91,-26.45,-28.97,0,*4A
1499385886.94,61989,17.25,74300.8,0.91,-26.45,-28.97,0,*4B
1499385888.13,61990,17.19,74298.5,0.93,-26.45,-28.97,0,*41
1499385889.41,61991,17.19,74300.3,0.91,-26.33,-28.79,0,*43
1499385890.64,61992,17.19,74302.3,0.93,-26.07,-28.47,0,*48
1499385891.84,61993,17.25,74304.3,0.93,-26.07,-28.53,0,*4C
1499385893.09,61994,17.19,74296.3,0.93,-26.13,-28.63,0,*4D
1499385894.32,61995,17.25,74290.8,0.93,-26.07,-28.47,0,*4F
1499385895.55,61996,17.25,74288.3,0.97,-26.07,-28.47,0,*48
1499385896.77,61997,17.19,74292.3,0.97,-26.23,-28.63,0,*49
1499385898.0,61998,17.19,74294.5,0.97,-26.23,-28.63,0,*46
1499385899.19,61999,17.19,74290.3,0.97,-26.45,-28.97,0,*4C
1499385900.41,62000,17.19,74292.8,0.97,-26.61,-29.13,0,*4D
1499385901.64,62001,17.19,74296.3,0.97,-26.77,-29.23,0,*48
1499385902.88,62002,17.19,74298.8,0.97,-26.93,-29.29,0,*4B
1499385904.14,62003,17.19,74304.0,0.93,-26.97,-29.39,0,*4B
1499385905.39,62004,17.19,74304.8,0.93,-26.97,-29.39,0,*4C
1499385906.64,62005,17.19,74306.5,0.93,-26.93,-29.29,0,*48
1499385907.89,62006,17.19,74306.5,0.93,-26.77,-29.17,0,*4C
1499385909.17,62007,17.19,74306.0,0.91,-26.81,-29.17,0,*46
1499385910.45,62008,17.19,74308.8,0.91,-26.77,-29.17,0,*40
1499385911.71,62009,17.19,74310.5,0.93,-26.77,-29.35,0,*43
1499385912.98,62010,17.19,74306.5,0.91,-26.77,-29.29,0,*44
1499385914.23,62011,17.25,74306.3,0.93,-26.77,-29.29,0,*47
1499385915.48,62012,17.19,74300.3,0.93,-26.77,-29.29,0,*44
1499385916.76,62013,17.19,74304.0,0.91,-26.77,-29.29,0,*47
1499385918.03,62014,17.25,74310.3,0.91,-26.77,-29.13,0,*49
1499385919.28,62015,17.19,74312.0,0.91,-26.65,-29.13,0,*4B
1499385920.54,62016,17.19,74306.3,0.91,-26.49,-29.01,0,*45
1499385921.79,62017,17.25,74304.0,0.91,-26.65,-29.13,0,*49
1499385923.05,62018,17.25,74298.5,0.91,-26.65,-29.17,0,*42
1499385924.24,62019,17.25,74300.0,0.89,-26.65,-29.07,0,*4B
1499385925.47,62020,17.19,74294.5,0.89,-26.49,-28.91,0,*41
1499385926.67,62021,17.25,74290.8,0.89,-26.39,-28.85,0,*42
1499385927.95,62022,17.19,74294.8,0.87,-26.55,-28.91,0,*40
1499385929.16,62023,17.19,74296.8,0.89,-26.55,-29.07,0,*41
1499385930.41,62024,17.19,74296.5,0.89,-26.55,-29.17,0,*47
1499385931.64,62025,17.19,74298.5,0.91,-26.45,-28.85,0,*44
1499385932.9,62026,17.25,74306.8,0.91,-26.33,-28.85,0,*46
1499385934.17,62027,17.25,74306.0,0.91,-26.17,-28.79,0,*42
1499385935.43,62028,17.19,74296.0,0.91,-26.61,-29.01,0,*42
1499385936.66,62029,17.19,74304.0,0.91,-26.65,-28.97,0,*49
1499385937.89,62030,17.19,74288.0,0.91,-26.65,-28.97,0,*41
1499385939.17,62031,17.25,74288.3,0.91,-26.77,-29.17,0,*4A
1499385940.42,62032,17.25,74292.8,0.89,-26.81,-29.17,0,*49
1499385941.7,62033,17.25,74294.3,0.91,-26.81,-29.01,0,*46
1499385942.93,62034,17.19,74292.3,0.89,-26.81,-28.85,0,*45
1499385944.18,62035,17.25,74288.5,0.87,-26.23,-28.91,0,*47
1499385945.43,62036,17.19,74294.3,0.87,-26.29,-29.45,0,*46
1499385946.63,62037,17.19,74302.0,0.89,-26.39,-29.45,0,*48
1499385947.91,62038,17.19,74298.5,0.87,-26.77,-29.39,0,*48
1499385949.19,62039,17.19,74302.8,0.87,-26.93,-29.51,0,*4D
1499385950.47,62040,17.19,74302.0,0.87,-26.93,-29.51,0,*43
1499385951.71,62041,17.25,74312.8,0.87,-26.87,-29.29,0,*48
1499385952.94,62042,17.19,74306.8,0.89,-26.81,-28.69,0,*46
1499385954.13,62043,17.19,74314.0,0.85,-26.87,-27.93,0,*47
1499385955.39,62044,17.19,74316.8,0.87,-26.03,-27.23,0,*45
1499385956.63,62045,17.25,74316.3,0.87,-24.93,-26.55,0,*4F
1499385957.91,62046,17.19,74312.3,0.87,-23.33,-26.29,0,*4A
1499385959.14,62047,17.25,74310.3,0.89,-24.25,-27.89,0,*4E
1499385960.42,62048,17.19,74306.5,0.87,-25.75,-28.47,0,*46
1499385961.66,62049,17.19,74306.5,0.87,-26.03,-29.13,0,*45
1499385962.91,62050,17.19,74302.3,0.87,-26.39,-29.29,0,*4D
1499385964.16,62051,17.19,74298.0,0.87,-26.45,-29.39,0,*46
1499385965.38,62052,17.19,74300.5,0.87,-27.07,-29.79,0,*46
1499385966.63,62053,17.25,74306.0,0.87,-27.19,-29.67,0,*47
1499385967.9,62054,17.25,74302.8,0.87,-26.77,-29.29,0,*43
1499385969.18,62055,17.25,74310.0,0.83,-25.97,-28.63,0,*44
1499385970.4,62056,17.19,74296.8,0.85,-26.45,-29.29,0,*42
1499385971.65,62057,17.25,74306.0,0.85,-26.71,-29.39,0,*45
1499385972.89,62058,17.19,74296.5,0.85,-26.71,-29.39,0,*4A
1499385974.15,62059,17.25,74302.0,0.85,-26.93,-29.51,0,*49
1499385975.4,62060,17.19,74302.0,0.87,-27.03,-29.51,0,*49
1499385976.63,62061,17.19,74294.8,0.87,-27.07,-29.79,0,*46
1499385977.85,62062,17.19,74302.0,0.85,-27.19,-29.83,0,*4D
1499385979.08,62063,17.25,74304.5,0.85,-27.23,-29.83,0,*45
1499385980.28,62064,17.19,74302.0,0.85,-27.03,-29.67,0,*4A
1499385981.49,62065,17.19,74302.0,0.85,-27.07,-29.57,0,*4C
1499385982.75,62066,17.19,74304.0,0.83,-27.29,-29.89,0,*46
1499385984.01,62067,17.19,74308.8,0.83,-27.29,-29.89,0,*47
1499385985.22,62068,17.25,74312.5,0.85,-27.07,-29.61,0,*44
1499385986.47,62069,17.25,74314.8,0.83,-26.93,-29.45,0,*49
1499385987.75,62070,17.19,74312.3,0.83,-26.77,-29.39,0,*40
1499385988.98,62071,17.19,74308.0,0.85,-26.71,-29.45,0,*4A
1499385990.24,62072,17.25,74314.5,0.83,-26.77,-29.45,0,*49
1499385991.45,62073,17.19,74308.8,0.85,-26.55,-29.07,0,*48
1499385992.71,62074,17.19,74310.3,0.83,-26.49,-29.01,0,*42
1499385993.96,62075,17.25,74312.8,0.83,-26.65,-29.29,0,*47
1499385995.25,62076,17.25,74310.8,0.83,-26.77,-29.35,0,*4A
1499385996.5,62077,17.25,74306.3,0.85,-26.77,-29.39,0,*41
1499385997.73,62078,17.19,74310.0,0.83,-27.07,-29.57,0,*46
1499385998.96,62079,17.25,74314.8,0.85,-27.23,-29.67,0,*44
1499386000.25,62080,17.19,74310.5,0.83,-26.93,-29.51,0,*4B
1499386001.5,62081,17.19,74312.5,0.83,-26.93,-29.45,0,*4F
1499386002.76,62082,17.19,74308.5,0.83,-26.97,-29.57,0,*4B
1499386004.02,62083,17.25,74308.0,0.85,-26.93,-29.51,0,*4E
1499386005.31,62084,17.25,74306.0,0.83,-26.77,-29.35,0,*47
1499386006.58,62085,17.25,74300.3,0.83,-26.77,-29.29,0,*4B
1499386007.84,62086,17.19,74296.8,0.83,-26.65,-29.29,0,*4B
1499386009.06,62087,17.19,74300.5,0.85,-26.93,-29.45,0,*4F
1499386010.32,62088,17.19,74302.5,0.83,-26.81,-29.45,0,*45
1499386011.52,62089,17.25,74304.5,0.85,-26.87,-29.45,0,*44
1499386012.78,62090,17.25,74304.0,0.83,-26.97,-29.57,0,*48
1499386014.01,62091,17.25,74300.5,0.85,-26.93,-29.45,0,*48
1499386015.2,62092,17.25,74302.3,0.85,-26.87,-29.23,0,*4E
1499386016.46,62093,17.19,74302.8,0.83,-26.65,-29.13,0,*46
1499386017.7,62094,17.19,74298.8,0.85,-26.55,-29.13,0,*44
1499386018.95,62095,17.25,74296.8,0.83,-26.81,-29.23,0,*49
1499386020.18,62096,17.19,74296.0,0.85,-26.93,-29.45,0,*4F
1499386021.41,62097,17.25,74300.3,0.83,-27.07,-29.57,0,*47
1499386022.62,62098,17.19,74304.8,0.85,-27.07,-29.61,0,*4B
1499386023.86,62099,17.19,74298.0,0.85,-26.77,-29.29,0,*40
1499386025.14,62100,17.25,74304.8,0.83,-26.77,-29.13,0,*4E
1499386026.42,62101,17.19,74304.8,0.83,-26.77,-29.29,0,*46
1499386027.7,62102,17.25,74308.0,0.83,-26.81,-29.17,0,*41
1499386028.98,62103,17.19,74288.3,0.83,-26.77,-29.17,0,*49
1499386030.26,62104,17.19,74286.3,0.83,-26.97,-29.35,0,*40
1499386031.55,62105,17.19,74294.8,0.83,-26.93,-29.51,0,*47
1499386032.83,62106,17.25,74298.3,0.83,-26.93,-29.51,0,*44
1499386034.09,62107,17.19,74300.5,0.83,-26.97,-29.67,0,*44
1499386035.33,62108,17.19,74300.3,0.83,-27.07,-29.67,0,*43
1499386036.58,62109,17.19,74304.3,0.83,-27.07,-29.73,0,*47
1499386037.84,62110,17.19,74306.3,0.83,-26.97,-29.45,0,*42
1499386039.07,62111,17.19,74310.3,0.81,-27.07,-29.73,0,*4C
1499386040.3,62112,17.19,74316.3,0.81,-26.93,-29.45,0,*46
1499386041.55,62113,17.19,74318.5,0.79,-26.81,-29.23,0,*43
1499386042.75,62114,17.25,74316.0,0.81,-26.49,-28.97,0,*49
1499386043.97,62115,17.25,74306.3,0.79,-26.87,-29.23,0,*43
1499386045.23,62116,17.19,74288.3,0.81,-26.81,-29.35,0,*46
1499386046.49,62117,17.19,74304.8,0.81,-26.97,-29.51,0,*42
1499386047.72,62118,17.25,74300.8,0.81,-26.93,-29.45,0,*4C
1499386048.98,62119,17.25,74306.0,0.81,-26.81,-29.35,0,*49
1499386050.24,62120,17.19,74306.0,0.81,-26.81,-29.35,0,*43
1499386051.49,62121,17.19,74306.0,0.79,-26.87,-29.39,0,*4F
1499386052.73,62122,17.19,74292.5,0.79,-26.87,-29.39,0,*4C
1499386053.99,62123,17.19,74294.3,0.81,-26.97,-29.51,0,*45
1499386055.22,62124,17.19,74310.0,0.79,-27.13,-29.57,0,*4E
1499386056.48,62125,17.25,74300.0,0.81,-26.81,-29.35,0,*46
1499386057.73,62126,17.19,74296.0,0.79,-26.49,-28.91,0,*49
1499386058.95,62127,17.19,74292.8,0.81,-26.61,-29.17,0,*4A
1499386060.18,62128,17.19,74294.8,0.81,-26.65,-29.17,0,*41
1499386061.43,62129,17.19,74298.8,0.81,-26.81,-29.29,0,*47
1499386062.69,62130,17.19,74298.8,0.81,-26.81,-29.51,0,*40
1499386063.94,62131,17.25,74298.8,0.79,-26.87,-29.51,0,*40
1499386065.18,62132,17.19,74292.3,0.81,-26.81,-29.45,0,*47
1499386066.41,62133,17.19,74296.5,0.81,-26.97,-29.57,0,*42
1499386067.64,62134,17.19,74288.0,0.81,-26.93,-29.45,0,*42
1499386068.89,62135,17.25,74296.0,0.79,-26.87,-29.51,0,*44
1499386070.15,62136,17.25,74298.3,0.79,-26.97,-29.57,0,*40
1499386071.39,62137,17.19,74286.0,0.79,-27.19,-29.61,0,*43
1499386072.64,62138,17.25,74300.3,0.79,-27.03,-29.73,0,*44
1499386073.84,62139,17.25,74318.8,0.77,-27.03,-29.61,0,*48
1499386075.05,62140,17.19,74316.5,0.77,-27.19,-29.61,0,*4D
1499386076.27,62141,17.19,74318.0,0.77,-27.13,-29.73,0,*45
1499386077.47,62142,17.19,74308.3,0.73,-27.19,-29.79,0,*42
1499386078.73,62143,17.19,74300.8,0.77,-26.97,-29.51,0,*4A
1499386079.95,62144,17.25,74306.0,0.73,-26.97,-29.45,0,*4C
1499386081.17,62145,17.19,74302.3,0.77,-26.65,-29.17,0,*43
1499386082.41,62146,17.25,74298.5,0.73,-26.77,-29.29,0,*4A
1499386083.66,62147,17.19,74296.0,0.77,-26.81,-29.35,0,*4B
1499386084.92,62148,17.19,74298.5,0.77,-26.97,-29.39,0,*4F
1499386086.1,62149,17.19,74292.0,0.77,-26.87,-29.23,0,*44
1499386087.33,62150,17.19,74290.8,0.77,-26.87,-29.35,0,*4B
1499386088.53,62151,17.25,74292.5,0.77,-27.03,-29.57,0,*43
1499386089.72,62152,17.25,74294.3,0.77,-27.13,-29.79,0,*4D
1499386090.93,62153,17.25,74300.0,0.73,-27.23,-29.79,0,*4B
1499386092.13,62154,17.19,74296.8,0.73,-27.23,-29.79,0,*4C
1499386093.34,62155,17.19,74296.5,0.73,-27.23,-29.79,0,*4D
1499386094.54,62156,17.19,74296.8,0.73,-27.19,-29.67,0,*48
1499386095.79,62157,17.19,74292.5,0.73,-26.97,-29.51,0,*4B
1499386096.97,62158,17.25,74298.5,0.73,-26.87,-29.57,0,*43
1499386098.18,62159,17.19,74300.5,0.73,-26.77,-29.23,0,*4E
1499386099.45,62160,17.25,74300.8,0.79,-26.55,-29.01,0,*4E
1499386100.64,62161,17.25,74296.3,0.73,-26.45,-28.97,0,*4A
1499386101.82,62162,17.25,74296.3,0.73,-26.39,-28.97,0,*42
1499386103.06,62163,17.25,74294.3,0.73,-26.33,-28.79,0,*49
1499386104.29,62164,17.19,74296.5,0.73,-26.33,-28.75,0,*42
1499386105.48,62165,17.25,74300.8,0.73,-26.45,-28.97,0,*4E